Location: Misciano
(43.5000°N, 11.9500°E)
Time: 17:41:51
(UTC+00:00)

Cosmos 2346 Rocket - Pass Details

Date: 13 August 2020
Orbit: 936 x 980 km, 82.9° (Epoch: 25 September)

Event Time Altitude Azimuth Distance (km) Brightness Sun altitude
Rises 21:14:11 0° 353° (N) 3,608 8.5 -25.7°
Reaches altitude 10° 21:16:41 10° 355° (N) 2,658 7.6 -26.0°
Maximum altitude 21:22:45 74° 81° (E) 975 4.3 -26.6°
Enters shadow 21:23:18 69° 124° (SE) 1,000 4.3 -26.6°
